Regional Weather Roundup
Issued by NWS

Home | Current Version | Previous Version | Text Only | Print | Product List | Glossary On
Versions: 1 2 3 4 5 6 7 8 9 10 11 12 13 14 15 16 17 18 19 20 21 22 23 24 25 26 27
000
ASUS45 KBOU 151410
RWRCO

WEATHER ROUNDUP FOR COLORADO
NATIONAL WEATHER SERVICE DENVER/BOULDER CO
700 AM MST FRI DEC 15 2017

NOTE: "FAIR" INDICATES FEW OR NO CLOUDS BELOW 12000 FEET WITH NO
SIGNIFICANT WEATHER AND/OR OBSTRUCTIONS TO VISIBILITY.

COZ001>005-013-030-031-151500-
...NORTHWEST COLORADO...

CITY           SKY/WX    TMP DP  RH WIND       PRES   REMARKS
CRAIG          FAIR       2  -3  80 W5        30.31S WCI  -8
HAYDEN         FAIR      15   7  70 SE12      30.31F WCI   2
MEEKER         FAIR       8   3  80 NE3       30.31F
RABBIT EARS PA FAIR      12  10  92 W7        30.24S WCI   2
STEAMBOAT SPGS FAIR       9   7  91 CALM      30.31S
WALDEN         FAIR      12   3  67 SE7       30.25S WCI   2
$$

COZ006>008-011-151500-
...WEST CENTRAL VALLEYS...

CITY           SKY/WX    TMP DP  RH WIND       PRES   REMARKS
GRAND JUNCTION FAIR      16   9  74 CALM      30.37R
MONTROSE       FAIR      14   8  77 S8        30.39S WCI   3
EAGLE          FAIR       5   0  79 CALM      30.43S
RIFLE          FAIR      11   5  77 SE5       30.39S WCI   3
DELTA          FAIR      15   7  70 W3        30.40R
NUCLA          FAIR      18   0  45 E3        30.39R
$$

COZ017>023-064>068-151500-
...SOUTHWEST COLORADO...

CITY           SKY/WX    TMP DP  RH WIND       PRES   REMARKS
DURANGO        FAIR      11   9  92 N6        30.31R WCI   1
CORTEZ         FAIR       8  -1  66 NE3       30.33R
PAGOSA SPRINGS FAIR      14  10  83 CALM      30.31S
TELLURIDE      FAIR      21 -12  23 SE6       30.33S WCI  13
WOLF CREEK PAS FAIR      19 -18  17 SW7       30.35S WCI  10
$$

COZ009-010-012-014-032>034-037-058>063-151500-
...CENTRAL COLORADO...

CITY           SKY/WX    TMP DP  RH WIND       PRES   REMARKS
ASPEN          FAIR       8   0  69 S5        30.31F WCI   0
BUENA VISTA    FAIR       7  -2  65 CALM      30.25S
COPPER MTN     NOT AVBL
BERTHOUD PASS  FAIR      10   0  61 NW30G40   30.19F HAZE    WCI -12
COTTONWOOD PAS FAIR      30  -9  17 SW6       30.22S WCI  24
GUNNISON       FAIR       1  -2  87 CALM      30.40R
KREMMLING      FAIR       3  -2  78 CALM      30.37F
LEADVILLE      FAIR      10  -5  50 NE8       30.25F WCI  -2
MONARCH PASS   FAIR      12  -8  40 SW35G46   30.33F WCI -10
SALIDA         FAIR      21   1  42 N15       30.31F WCI   7
SUNLIGHT       FAIR      19  -8  30 CALM      30.34S
WILKERSON PASS FAIR      21  -9  25 NW17G26   30.19F WCI   7
$$

COZ069>075-151500-
...SAN LUIS VALLEY/SANGRE DE CRISTO MOUNTAINS...

CITY           SKY/WX    TMP DP  RH WIND       PRES   REMARKS
ALAMOSA        FAIR      -3  -7  82 SW6       30.31R WCI -15
DEL NORTE      FAIR      11  -1  59 W8        30.31S WCI  -1
LA VETA PASS   FAIR      12   3  67 SW28        N/A  WCI  -9
SAGUACHE       FAIR      18   5  57 NE3       30.31S
$$

COZ035-036-038>040-151500-
...NORTHERN COLORADO FRONT RANGE...

CITY           SKY/WX    TMP DP  RH WIND       PRES   REMARKS
DENVER INTL AP FAIR      31   6  35 SW20      30.02S WCI  19
DMNS CITY PARK NOT AVBL
AURORA         PTCLDY    29   6  37 S14       30.03F WCI  19
FRONT RANGE AP PTCLDY    34   7  32 S16       30.03F WCI  23
ERIE MUNI ARPT FAIR      17  15  90 CALM      30.07F
BOULDER MUN AP FAIR      27  14  59 S6        30.01F WCI  20
CENTENNIAL     FAIR      35   7  31 SW13      30.03F WCI  26
BROOMFIELD     PTCLDY    36   7  30 SW7       30.92R
FORT COLLINS   FAIR      20  16  84 CALM      30.02F
LONGMONT       FAIR      16  11  80 CALM      30.04F
$$

COZ041-046-047-076>085-087-088-151500-
...PIKES PEAK/PALMER DIVIDE AND SOUTHERN FOOTHILLS...

CITY           SKY/WX    TMP DP  RH WIND       PRES   REMARKS
COLO. SPRINGS  FAIR      24   7  48 N5        30.10F WCI  18
A. F. ACADEMY  FAIR      21   4  48 CALM      30.08F
SCHRIEVER AFB  FAIR      30  -2  25 W5        30.10F WCI  25
CHEYENNE MTN   FAIR      38  -7  15 S8        30.03F
ELLICOTT         N/A    N/A N/A N/A NE3         N/A
FALCON         FAIR      21   3  44 W9        30.10S WCI  11
FORT CARSON    FAIR      19  10  69 NW6       30.07F WCI  10
LIMON          FAIR       5   2  87 N9        30.06F WCI  -9
MONUMENT HILL  FAIR      23   3  42 SW9       30.09S WCI  13
CANON CITY     FAIR      34   5  29 W23       30.11F WCI  22
WALSENBURG     FAIR      37   3  23 W21G36    30.12F
TRINIDAD       FAIR      24  12  60 SW18      30.14F WCI  10
$$

COZ042>045-048>051-090-091-151500-
...NORTHEAST COLORADO...

CITY           SKY/WX    TMP DP  RH WIND       PRES   REMARKS
GREELEY ARPT   FAIR       9   4  80 NW3       30.04F
AKRON          FAIR      19  10  68 W15       30.01F WCI   5
BURLINGTON     FAIR      21  15  78 SW12      30.07F WCI   9
WRAY           FAIR      18  12  79 W9        30.03F WCI   6
YUMA           FAIR      19  12  73 W12       30.02F WCI   7
STERLING       FAIR      12  10  92 S6        30.03F WCI   3
HOLYOKE        FAIR      18  12  79 SW6       30.01F WCI   9
FORT MORGAN    FAIR      11   9  89 SW10      30.04F WCI  -2
$$

COZ086-089-092>099-151500-
...SOUTHEAST COLORADO...

CITY           SKY/WX    TMP DP  RH WIND       PRES   REMARKS
PUEBLO         FAIR      11   7  84 W5        30.12F WCI   3
LA JUNTA       FAIR      19  16  88 W12       30.14F WCI   7
LAMAR          FAIR      16  12  84 SW9       30.13F WCI   4
SPRINGFIELD      N/A     15  13  91 W5        30.15F WCI   8
$$




USA.gov is the U.S. government's official web portal to all federal, state and local government web resources and services.